Location: Hope
(40.9110°N, 74.9680°W)
Time: 02:43:55
(UTC-05:00)

LightSail 2 - Visible Passes

Search period start: 25 January 2021 00:00
Search period end: 04 February 2021 00:00
Orbit: 685 x 712 km, 24.0° (Epoch: 24 January)

Date Brightness Start Highest point End Pass type
(mag) Time Alt. Az. Time Alt. Az. Time Alt. Az.
25 Jan 7.8 06:29:24 10° S 06:30:12 10° S 06:31:01 10° SSE visible
27 Jan 7.6 06:08:42 10° SSW 06:09:51 11° S 06:11:00 10° SSE visible
28 Jan 7.5 05:06:45 10° S 05:07:32 10° S 05:08:20 10° SSE visible
29 Jan 7.6 05:48:40 10° SSW 05:49:26 10° S 05:50:13 10° S visible
30 Jan 7.6 04:47:22 11° S 04:47:22 11° S 04:48:13 10° SSE visible
